{"data":{"norad_id":59605,"intl_designator":"2024-080E","name":"STARLINK-31767","alt_names":[],"object_type":"PAYLOAD","status":"ACTIVE","operator":null,"country":"US","launch_date":"2024-04-28","launch_site_code":"AFETR","launch_vehicle":null,"mission":null,"orbit_class":"UNKNOWN","rcs_meters":null,"size_class":null,"mass_kg":null,"dimensions":null,"purposes":["comms"],"wikipedia_slug":null,"has_3d_model":false,"image_url":null,"decayed_at":null,"tle_current":{"epoch":"2026-05-24T21:14:41.921952Z","epoch_age_seconds":88251,"freshness":"FRESH","line1":"1 59605U 24080E   26144.88520743  .00000919  00000+0  42911-4 0  9992","line2":"2 59605  43.0036 327.7825 0001008 281.6971  78.3767 15.27580238116186","mean_motion":15.27580238,"eccentricity":0.0001008,"inclination_deg":43.0036,"raan_deg":327.7825,"arg_perigee_deg":281.6971,"mean_anomaly_deg":78.3767,"bstar":4.2911e-5,"rev_number":11618,"period_min":94.266734026707,"perigee_km":482.35677589548,"apogee_km":483.73999086877,"semimajor_km":6861.1853833821,"source":"CELESTRAK","updated_at":"2026-05-25T13:38:19.008254Z"}}}